DW8084 Weather Reports


Display with metric or nautical units.
time (UTC)temp
F
wind
direction
speed
MPH
gust
MPH
rain 1hr
in
rain 24hr
in
rain mn
in
humidity
%
barometer
mb
20260510175205 55 67 4.0 8.0 0.00 0.00 0.00 59
20260510174419 55 53 2.0 5.0 0.00 0.00 0.00 59
20260510173205 55 50 4.0 8.0 0.00 0.00 0.00 57
20260510172206 55 59 4.0 10.0 0.00 0.00 0.00 59
20260510171416 56 57 4.0 11.0 0.00 0.00 0.00 59
20260510170205 55 48 4.0 13.0 0.00 0.00 0.00 60
20260510165205 55 52 5.0 12.0 0.00 0.00 0.00 60
20260510164204 55 58 4.0 9.0 0.00 0.00 0.00 61
20260510163415 55 56 4.0 14.0 0.00 0.00 0.00 61
20260510162205 55 55 4.0 9.0 0.00 0.00 0.00 61
20260510161205 55 44 4.0 9.0 0.00 0.00 0.00 61
20260510160418 55 25 3.0 8.0 0.00 0.00 0.00 62
20260510155205 55 41 4.0 9.0 0.00 0.00 0.00 64
20260510154205 55 59 5.0 9.0 0.00 0.00 0.00 63
20260510153205 55 59 4.0 8.0 0.00 0.00 0.00 65
20260510152417 54 58 5.0 15.0 0.00 0.00 0.00 65
20260510151205 54 61 4.0 8.0 0.00 0.00 0.00 66
20260510150419 54 63 4.0 8.0 0.00 0.00 0.00 67
20260510145205 54 53 5.0 9.0 0.00 0.00 0.00 67
20260510144416 54 51 3.0 9.0 0.00 0.00 0.00 67
20260510143204 54 63 4.0 10.0 0.00 0.00 0.00 68
20260510142205 53 62 5.0 11.0 0.00 0.00 0.00 69
20260510141205 53 59 5.0 9.0 0.00 0.00 0.00 69
20260510140205 53 62 6.0 13.0 0.00 0.00 0.00 69
20260510135415 53 57 5.0 13.0 0.00 0.00 0.00 71
20260510134416 53 54 6.0 13.0 0.00 0.00 0.00 71
20260510133204 53 51 5.0 12.0 0.00 0.00 0.00 71
20260510132418 53 50 5.0 13.0 0.00 0.00 0.00 71
20260510131205 53 58 5.0 11.0 0.00 0.00 0.00 72
20260510130204 53 61 5.0 11.0 0.00 0.00 0.00 72
20260510125205 52 58 4.0 8.0 0.00 0.00 0.00 73
20260510124204 52 58 5.0 12.0 0.00 0.00 0.00 73
20260510123418 52 64 6.0 16.0 0.00 0.00 0.00 72
20260510122205 53 55 7.0 13.0 0.00 0.00 0.00 71
20260510121204 54 55 4.0 14.0 0.00 0.00 0.00 72
20260510120204 53 59 6.0 12.0 0.00 0.00 0.00 73
20260510115205 53 43 5.0 15.0 0.00 0.00 0.00 73
20260510114204 52 44 6.0 15.0 0.00 0.00 0.00 75
20260510113205 52 55 5.0 11.0 0.00 0.00 0.00 75
20260510112205 52 58 5.0 14.0 0.00 0.00 0.00 74
20260510111415 51 64 6.0 15.0 0.00 0.00 0.00 77
20260510110416 51 64 7.0 13.0 0.00 0.00 0.00 78
20260510105204 50 58 7.0 14.0 0.00 0.00 0.00 78
20260510104205 50 48 6.0 14.0 0.00 0.00 0.00 79
20260510103414 50 36 6.0 14.0 0.00 0.00 0.00 79
20260510102205 51 44 4.0 11.0 0.00 0.00 0.00 79
20260510101416 51 51 4.0 10.0 0.00 0.00 0.00 79
20260510100417 51 36 4.0 10.0 0.00 0.00 0.00 79
20260510095418 51 36 5.0 11.0 0.00 0.00 0.00 78
20260510094206 51 49 5.0 14.0 0.00 0.00 0.00 79
20260510093204 51 57 3.0 7.0 0.00 0.00 0.00 79
20260510092204 51 57 5.0 11.0 0.00 0.00 0.00 79
20260510091204 51 49 5.0 13.0 0.00 0.00 0.00 78
20260510090204 51 49 6.0 12.0 0.00 0.00 0.00 77
20260510085204 51 48 6.0 11.0 0.00 0.00 0.00 77
20260510084204 51 44 4.0 10.0 0.00 0.00 0.00 78
20260510083204 51 52 4.0 10.0 0.00 0.00 0.00 77
20260510082204 51 54 6.0 14.0 0.00 0.00 0.00 76
20260510081204 51 46 6.0 12.0 0.00 0.00 0.00 76
20260510080205 51 54 5.0 15.0 0.00 0.00 0.00 76
20260510075204 52 59 5.0 14.0 0.00 0.00 0.00 75
20260510074204 51 54 6.0 14.0 0.00 0.00 0.00 75
20260510073204 51 46 7.0 18.0 0.00 0.00 0.00 75
20260510072204 51 51 6.0 17.0 0.00 0.00 0.00 76
20260510071418 50 56 5.0 14.0 0.00 0.00 0.00 78
20260510070204 50 57 7.0 15.0 0.00 0.00 0.00 79
20260510065204 50 59 5.0 15.0 0.00 0.00 0.00 81
20260510064204 49 56 5.0 11.0 0.00 0.00 0.00 81
20260510063204 49 56 4.0 10.0 0.00 0.00 0.00 82
20260510062203 48 55 4.0 11.0 0.00 0.00 0.00 83
20260510061204 48 49 3.0 10.0 0.00 0.00 0.00 83
20260510060203 48 48 3.0 9.0 0.00 0.00 0.00 84
20260510055204 48 46 3.0 7.0 0.00 0.00 0.00 83
20260510054203 48 49 2.0 6.0 0.00 0.00 0.00 83
20260510053417 48 48 3.0 7.0 0.00 0.00 0.00 84
20260510052204 48 45 4.0 10.0 0.00 0.00 0.00 83
20260510051414 48 49 3.0 8.0 0.00 0.00 0.00 84
20260510050203 48 45 4.0 11.0 0.00 0.00 0.00 84
20260510045204 47 44 4.0 10.0 0.00 0.00 0.00 84
20260510044204 47 46 3.0 8.0 0.00 0.00 0.00 85
20260510043204 47 42 3.0 8.0 0.00 0.00 0.00 85
20260510042203 47 40 3.0 9.0 0.00 0.00 0.00 85
20260510041204 47 41 3.0 8.0 0.00 0.00 0.00 86
20260510040204 47 46 3.0 7.0 0.00 0.00 0.00 86
20260510035203 47 52 2.0 7.0 0.00 0.00 0.00 86
20260510034203 47 50 3.0 7.0 0.00 0.00 0.00 86
20260510033203 47 49 2.0 7.0 0.00 0.00 0.00 85
20260510032204 47 42 3.0 8.0 0.00 0.00 0.00 85
20260510031204 47 37 2.0 5.0 0.00 0.00 0.00 84
20260510030203 47 42 4.0 11.0 0.00 0.00 0.00 84
20260510025203 47 46 4.0 8.0 0.00 0.00 0.00 84
20260510024204 48 45 3.0 8.0 0.00 0.00 0.00 83
20260510023204 48 43 4.0 14.0 0.00 0.00 0.00 83
20260510022203 48 40 4.0 13.0 0.00 0.00 0.00 83
20260510021203 48 44 4.0 12.0 0.00 0.00 0.00 83
20260510020417 48 48 4.0 11.0 0.00 0.00 0.00 84
20260510015203 48 41 3.0 8.0 0.00 0.00 0.00 85
20260510014203 49 30 3.0 7.0 0.00 0.00 0.00 85
20260510013203 49 26 3.0 9.0 0.00 0.00 0.00 85
20260510012416 49 33 2.0 7.0 0.00 0.00 0.00 83
20260510011206 50 43 2.0 5.0 0.00 0.00 0.00 81
20260510010205 50 39 2.0 5.0 0.00 0.00 0.00 79
20260510005206 50 36 3.0 7.0 0.00 0.00 0.00 79
20260510004205 50 42 3.0 7.0 0.00 0.00 0.00 78
20260510003206 51 48 3.0 6.0 0.00 0.00 0.00 76
20260510002205 51 50 3.0 7.0 0.00 0.00 0.00 74
20260510001205 52 52 2.0 7.0 0.00 0.00 0.00 73
20260510000205 52 58 5.0 12.0 0.00 0.00 0.00 72
20260509235414 52 51 2.0 7.0 0.00 0.00 0.00 72
20260509234205 53 46 5.0 13.0 0.00 0.00 0.00 71
20260509233205 53 48 5.0 12.0 0.00 0.00 0.00 72
20260509232205 53 43 4.0 10.0 0.00 0.00 0.00 73
20260509231206 53 27 3.0 11.0 0.00 0.00 0.00 79
20260509230205 53 21 4.0 9.0 0.00 0.00 0.00 83
20260509225203 53 24 3.0 8.0 0.00 0.00 0.00 84
20260509224415 53 24 4.0 9.0 0.00 0.00 0.00 84
20260509223204 54 23 4.0 9.0 0.00 0.00 0.00 84
20260509222203 54 26 4.0 9.0 0.00 0.00 0.00 83
20260509221204 55 26 4.0 9.0 0.00 0.00 0.00 83
20260509220204 55 22 4.0 9.0 0.00 0.00 0.00 82
20260509215203 55 23 4.0 11.0 0.00 0.00 0.00 81
20260509214204 56 26 2.0 6.0 0.00 0.00 0.00 80
20260509213203 56 23 3.0 9.0 0.00 0.00 0.00 79
20260509212204 57 20 4.0 9.0 0.00 0.00 0.00 79
20260509211203 57 21 4.0 11.0 0.00 0.00 0.00 78
20260509210415 57 22 5.0 11.0 0.00 0.00 0.00 77
20260509205203 58 18 4.0 11.0 0.00 0.00 0.00 77
20260509204203 58 12 4.0 9.0 0.00 0.00 0.00 76
20260509203203 58 8 3.0 8.0 0.00 0.00 0.00 74
20260509202207 59 357 5.0 12.0 0.00 0.00 0.00 72
20260509201203 59 351 3.0 8.0 0.00 0.00 0.00 67
20260509200206 60 10 2.0 6.0 0.00 0.00 0.00 58
20260509195204 61 24 2.0 5.0 0.00 0.00 0.00 57
20260509194206 62 30 2.0 5.0 0.00 0.00 0.00 55
20260509193205 62 31 1.0 5.0 0.00 0.00 0.00 54
20260509192205 63 31 2.0 5.0 0.00 0.00 0.00 53
20260509191205 63 32 2.0 6.0 0.00 0.00 0.00 53
20260509190205 64 31 2.0 6.0 0.00 0.00 0.00 52
20260509185206 65 32 2.0 6.0 0.00 0.00 0.00 51
20260509184205 65 41 2.0 6.0 0.00 0.00 0.00 50
20260509183206 65 45 2.0 8.0 0.00 0.00 0.00 50
20260509182205 66 53 3.0 9.0 0.00 0.00 0.00 49
20260509181205 66 57 3.0 8.0 0.00 0.00 0.00 48
20260509180205 66 44 3.0 8.0 0.00 0.00 0.00 48